"2012/01/01", 4.6, 4.9, 4.2
"2012/01/02", 4.5, 4.9, 4.2
"2012/01/03", 4.4, 5.1, 3.7
"2012/01/04", 4.7, 5.6, 4.0
"2012/01/05", 4.4, 5.0, 4.0
"2012/01/06", 4.1, 4.5, 3.3
"2012/01/07", 4.1, 4.7, 3.5
"2012/01/08", 4.2, 4.9, 3.4
"2012/01/09", 4.6, 5.4, 3.9
"2012/01/10", 5.2, 5.9, 4.4
"2012/01/11", 5.0, 5.4, 4.2
"2012/01/12", 3.9, 4.7, 3.2
"2012/01/13", 4.1, 4.7, 3.6
"2012/01/14", 4.2, 4.9, 3.6
"2012/01/15", 3.8, 4.3, 3.2
"2012/01/16", 3.6, 4.0, 3.3
"2012/01/17", 3.8, 4.4, 3.3
"2012/01/18", 4.1, 5.0, 3.2
"2012/01/19", 4.4, 4.9, 3.9
"2012/01/20", 4.2, 4.5, 4.0
"2012/01/21", 3.9, 4.0, 3.7
"2012/01/22", 4.1, 4.4, 3.8
"2012/01/23", 4.0, 4.3, 3.8
"2012/01/24", 3.9, 4.6, 3.4
"2012/01/25", 4.2, 5.1, 3.6
"2012/01/26", 3.9, 4.5, 3.2
"2012/01/27", 3.7, 4.5, 3.0
"2012/01/28", 3.7, 4.3, 3.1
"2012/01/29", 3.3, 4.0, 2.6
"2012/01/30", 3.4, 4.2, 2.8
"2012/01/31", 3.3, 3.8, 2.6
"2012/02/01", 3.6, 4.7, 2.8
"2012/02/02", 3.1, 3.7, 2.2
"2012/02/03", 2.8, 4.0, 1.8
"2012/02/04", 3.6, 4.4, 2.8
"2012/02/05", 3.6, 4.1, 2.9
"2012/02/06", 3.8, 4.4, 3.2
"2012/02/07", 4.2, 4.6, 3.8
"2012/02/08", 4.3, 4.6, 3.9
"2012/02/09", 4.1, 5.1, 3.4
"2012/02/10", 4.0, 4.7, 3.5
"2012/02/11", 4.4, 5.4, 3.5
"2012/02/12", 4.6, 5.8, 3.7
"2012/02/13", 4.6, 5.2, 4.0
"2012/02/14", 4.8, 5.2, 4.7
"2012/02/15", 4.7, 5.0, 4.3
"2012/02/16", 4.2, 4.4, 3.9
"2012/02/17", 4.0, 4.8, 3.2
"2012/02/18", 4.4, 5.3, 3.8
"2012/02/19", 3.9, 5.1, 2.9
"2012/02/20", 4.7, 5.9, 3.6
"2012/02/21", 5.4, 6.4, 4.6
"2012/02/22", 5.6, 6.3, 5.1
"2012/02/23", 6.0, 6.5, 5.3
"2012/02/24", 6.5, 7.3, 5.7
"2012/02/25", 6.3, 7.0, 5.5
"2012/02/26", 5.4, 5.8, 5.1
"2012/02/27", 5.7, 6.8, 5.1
"2012/02/28", 5.3, 5.9, 4.4
"2012/02/29", 5.0, 5.5, 4.8
"2012/03/01", 5.3, 6.0, 4.6
"2012/03/02", 5.9, 6.3, 5.6
"2012/03/03", 5.9, 7.2, 5.2
"2012/03/04", 5.8, 6.3, 5.4
"2012/03/05", 5.9, 6.2, 5.5
"2012/03/06", 6.5, 7.1, 5.9
"2012/03/07", 7.2, 7.8, 6.8
"2012/03/08", 7.0, 7.6, 6.6
"2012/03/09", 7.2, 7.6, 6.8
"2012/03/10", 6.5, 6.8, 6.3
"2012/03/11", 6.8, 7.5, 5.9
"2012/03/12", 7.4, 9.1, 6.5
"2012/03/13", 7.1, 8.2, 6.0
"2012/03/14", 7.7, 9.0, 6.2
"2012/03/15", 8.5,10.0, 7.5
"2012/03/16", 8.4, 9.3, 7.6
"2012/03/17", 8.3, 8.6, 8.1
"2012/03/18", 8.5, 8.9, 8.1
"2012/03/19", 9.0,10.3, 8.4
"2012/03/20", 8.7, 9.5, 7.9
"2012/03/21", 9.1,10.8, 7.9
"2012/03/22", 9.3,10.3, 8.3
"2012/03/23", 9.5, 9.8, 9.2
"2012/03/24", 9.3, 9.6, 8.8
"2012/03/25", 9.6,11.2, 8.4
"2012/03/26", 9.6,10.8, 8.8
"2012/03/27", 9.5,11.4, 8.7
"2012/03/28"," *"," *"," *"
"2012/03/29"," *"," *"," *"
"2012/03/30",11.3,12.4,10.4
"2012/03/31",11.5,12.1,11.0
"2012/04/01",10.6,11.7, 9.0
"2012/04/02",11.2,12.6,10.0
"2012/04/03",11.8,12.5,10.9
"2012/04/04",11.5,12.5,10.9
"2012/04/05",11.3,12.2,10.4
"2012/04/06",11.7,13.0,10.8
"2012/04/07",11.2,12.1,10.5
"2012/04/08",11.3,13.1, 9.9
"2012/04/09",11.6,12.5,11.0
"2012/04/10",12.4,13.6,11.3
"2012/04/11",12.9,13.3,12.5
"2012/04/12",13.8,15.2,12.6
"2012/04/13",14.8,16.6,13.6
"2012/04/14",13.2,14.3,12.0
"2012/04/15",12.5,13.6,11.2
"2012/04/16",13.1,14.2,11.7
"2012/04/17"," *"," *"," *"
"2012/04/18"," *"," *"," *"
"2012/04/19",14.9,16.3,13.8
"2012/04/20",14.5,15.2,13.6
"2012/04/21",13.8,14.2,13.2
"2012/04/22",13.1,13.3,12.7
"2012/04/23",13.7,14.1,13.1
"2012/04/24",15.3,16.7,13.8
"2012/04/25",15.9,16.6,15.4
"2012/04/26",15.9,16.5,15.4
"2012/04/27",16.1,16.5,15.6
"2012/04/28",16.0,16.6,15.5
"2012/04/29",16.8,18.6,15.4
"2012/04/30",17.4,18.6,16.7
"2012/05/01",17.6,18.1,17.0
"2012/05/02",17.9,18.4,17.0
"2012/05/03",17.2,17.6,16.9
"2012/05/04",17.5,18.0,17.2
"2012/05/05",18.5,20.3,17.4
"2012/05/06",19.3,20.5,18.4
"2012/05/07",19.4,21.4,18.2
"2012/05/08",20.0,22.3,18.4
"2012/05/09",19.8,20.3,19.3
"2012/05/10",19.9,21.7,18.9
"2012/05/11",19.7,20.8,18.9
"2012/05/12",20.0,21.3,18.9
"2012/05/13",20.0,21.6,18.6
"2012/05/14",20.3,21.5,19.3
"2012/05/15",20.0,20.2,19.8
"2012/05/16",21.3,24.6,19.7
"2012/05/17",21.2,22.6,20.4
"2012/05/18",20.7,21.8,19.5
"2012/05/19",21.3,23.8,19.8
"2012/05/20",21.6,23.3,20.4
"2012/05/21",21.0,21.9,20.2
"2012/05/22",18.8,20.1,17.8
"2012/05/23",18.9,20.3,17.5
"2012/05/24",20.2,21.5,18.9
"2012/05/25",19.9,20.4,19.5
"2012/05/26",21.2,23.5,19.4
"2012/05/27",21.3,22.4,20.3
"2012/05/28",21.5,22.7,20.9
"2012/05/29",21.4,22.4,20.7
"2012/05/30",21.4,22.3,20.4
"2012/05/31",21.8,22.7,20.8
"2012/06/01",22.1,23.8,21.1
"2012/06/02",22.3,23.3,21.4
"2012/06/03",21.9,22.6,21.2
"2012/06/04",22.7,25.0,21.5
"2012/06/05",22.7,23.1,22.2
"2012/06/06",21.8,22.8,20.5
"2012/06/07",21.9,23.6,20.2
"2012/06/08",23.0,26.2,21.7
"2012/06/09",22.1,22.7,21.0
"2012/06/10",22.1,23.6,20.8
"2012/06/11",22.4,23.1,21.8
"2012/06/12",21.0,22.2,19.2
"2012/06/13",19.9,20.7,18.7
"2012/06/14",20.5,21.6,19.6
"2012/06/15",20.7,21.6,19.7
"2012/06/16",20.8,21.0,20.4
"2012/06/17",21.7,23.2,20.7
"2012/06/18",22.5,23.5,21.9
"2012/06/19",22.3,22.7,21.8
"2012/06/20",22.9,23.7,22.2
"2012/06/21",23.1,25.6,22.4
"2012/06/22",22.4,22.9,21.8
"2012/06/23",22.7,23.6,21.9
"2012/06/24",23.0,23.6,22.5
"2012/06/25",21.9,22.9,20.9
"2012/06/26",21.3,22.4,20.6
"2012/06/27",21.9,22.8,20.4
"2012/06/28",22.8,24.3,21.5
"2012/06/29",22.6,23.8,21.9
"2012/06/30",23.0,24.6,21.9
"2012/07/01",23.3,24.1,22.4
"2012/07/02",23.1,23.7,22.3
"2012/07/03",23.8,25.1,22.9
"2012/07/04",24.6,26.6,22.9
"2012/07/05",25.3,26.6,24.2
"2012/07/06",25.4,26.7,24.5
"2012/07/07",24.7,25.7,23.3
"2012/07/08",23.7,24.5,22.9
"2012/07/09",24.7,26.7,23.1
"2012/07/10",25.7,28.3,24.2
"2012/07/11",25.3,26.3,24.7
"2012/07/12",25.5,26.0,25.1
"2012/07/13",25.4,25.8,24.9
"2012/07/14",26.0,26.5,25.4
"2012/07/15",26.6,27.2,25.8
"2012/07/16",27.1,27.6,26.1
"2012/07/17",27.2,28.2,26.6
"2012/07/18",27.8,29.0,26.4
"2012/07/19",28.1,29.3,26.9
"2012/07/20",25.6,26.8,24.5
"2012/07/21",24.9,25.5,24.3
"2012/07/22",24.4,24.7,23.8
"2012/07/23",25.4,26.9,23.8
"2012/07/24",26.4,28.0,25.1
"2012/07/25",27.0,28.9,25.7
"2012/07/26",27.6,29.7,25.4
"2012/07/27",28.3,30.6,26.2
"2012/07/28",27.6,31.5,26.3
"2012/07/29",27.1,27.9,26.6
"2012/07/30",27.6,28.3,26.9
"2012/07/31",28.9,30.5,27.3
"2012/08/01",29.1,29.7,28.4
"2012/08/02",29.7,31.9,28.4
"2012/08/03",29.8,30.7,29.0
"2012/08/04",29.6,30.7,28.6
"2012/08/05",30.0,31.1,29.0
"2012/08/06",29.5,29.9,29.1
"2012/08/07",29.6,31.6,28.1
"2012/08/08",28.4,29.3,27.4
"2012/08/09",27.3,28.3,26.5
"2012/08/10",28.0,29.9,26.6
"2012/08/11"," *"," *"," *"
"2012/08/12"," *"," *"," *"
"2012/08/13"," *"," *"," *"
"2012/08/14"," *"," *"," *"
"2012/08/15",28.5,29.7,27.5
"2012/08/16",28.4,29.2,27.9
"2012/08/17",29.7,32.9,28.3
"2012/08/18",29.0,29.7,28.5
"2012/08/19",28.8,29.4,28.2
"2012/08/20",29.8,31.7,28.4
"2012/08/21",29.0,29.7,28.4
"2012/08/22",29.2,29.9,28.3
"2012/08/23",29.9,31.8,29.1
"2012/08/24",30.3,32.1,29.0
"2012/08/25",30.2,31.7,29.1
"2012/08/26",30.2,31.4,29.3
"2012/08/27",30.1,31.5,29.1
"2012/08/28",30.2,31.0,29.8
"2012/08/29",29.4,29.9,29.0
"2012/08/30",30.2,32.0,29.0
"2012/08/31",29.9,30.6,29.4
"2012/09/01",29.5,30.2,28.4
"2012/09/02",28.5,29.1,27.9
"2012/09/03",28.8,30.5,27.4
"2012/09/04",29.0,30.3,27.9
"2012/09/05",29.8,31.4,28.4
"2012/09/06",28.9,30.3,27.9
"2012/09/07",28.9,30.1,27.9
"2012/09/08",29.0,30.4,27.9
"2012/09/09",28.7,29.5,28.2
"2012/09/10",28.9,30.2,28.5
"2012/09/11",29.4,30.8,28.2
"2012/09/12",29.5,31.2,28.3
"2012/09/13",29.6,31.5,28.1
"2012/09/14",29.3,29.8,28.9
"2012/09/15",29.1,29.7,28.7
"2012/09/16",28.6,29.4,28.1
"2012/09/17",28.6,29.3,28.1
"2012/09/18",28.4,28.9,27.9
"2012/09/19",28.0,28.3,27.8
"2012/09/20",28.1,29.1,27.5
"2012/09/21",27.2,27.8,26.4
"2012/09/22",26.2,26.6,25.8
"2012/09/23",25.0,25.9,23.8
"2012/09/24",25.3,27.3,24.1
"2012/09/25",23.9,24.8,23.1
"2012/09/26",23.0,23.8,22.3
"2012/09/27",22.2,23.1,21.2
"2012/09/28",21.6,22.2,20.9
"2012/09/29",22.8,24.1,21.7
"2012/09/30",23.1,23.9,22.5
"2012/10/01",23.3,23.8,22.6
"2012/10/02",23.2,23.8,22.7
"2012/10/03",22.2,22.9,21.5
"2012/10/04",21.8,22.8,20.9
"2012/10/05",23.1,24.9,21.7
"2012/10/06",23.4,24.2,22.6
"2012/10/07",22.4,23.0,21.5
"2012/10/08",21.1,21.6,20.6
"2012/10/09",20.4,21.0,19.8
"2012/10/10",19.7,20.3,18.8
"2012/10/11",20.2,20.8,19.5
"2012/10/12",21.0,22.4,19.8
"2012/10/13",20.7,21.4,20.1
"2012/10/14",20.0,20.4,19.5
"2012/10/15",20.5,22.0,19.3
"2012/10/16",19.8,20.4,19.2
"2012/10/17",20.1,21.2,19.0
"2012/10/18",19.9,20.5,19.0
"2012/10/19",18.3,19.2,17.4
"2012/10/20",18.8,20.1,17.9
"2012/10/21",19.1,20.1,18.3
"2012/10/22",19.3,20.2,18.7
"2012/10/23",19.1,19.6,18.8
"2012/10/24",18.6,19.1,17.8
"2012/10/25",17.6,18.1,17.2
"2012/10/26",18.2,19.3,17.0
"2012/10/27",18.0,18.3,17.2
"2012/10/28",17.3,17.6,16.8
"2012/10/29",17.7,18.6,17.1
"2012/10/30",17.6,18.4,16.7
"2012/10/31",16.9,17.3,16.4
"2012/11/01",16.7,17.5,16.0
"2012/11/02",15.8,16.5,15.1
"2012/11/03",15.8,16.9,14.5
"2012/11/04",16.2,17.4,15.1
"2012/11/05",15.7,16.2,15.2
"2012/11/06",15.8,16.0,15.6
"2012/11/07",16.1,17.0,15.5
"2012/11/08",15.8,16.4,15.3
"2012/11/09"," *"," *"," *"
"2012/11/10",15.8,17.1,15.1
"2012/11/11",15.3,15.8,14.9
"2012/11/12",15.3,15.7,15.1
"2012/11/13",15.1,15.8,14.7
"2012/11/14",14.8,15.6,14.0
"2012/11/15",14.0,14.6,13.3
"2012/11/16",13.8,14.8,12.7
"2012/11/17",13.5,13.8,13.1
"2012/11/18",13.1,13.7,11.9
"2012/11/19",11.4,12.0,10.6
"2012/11/20",11.8,12.5,11.3
"2012/11/21",11.2,11.8,10.0
"2012/11/22",11.6,12.1,11.1
"2012/11/23",11.4,11.7,11.1
"2012/11/24",10.8,11.2,10.4
"2012/11/25",11.3,12.9,10.3
"2012/11/26",11.0,11.2,10.7
"2012/11/27",10.4,11.0, 9.4
"2012/11/28", 9.1, 9.5, 8.6
"2012/11/29", 9.8,10.5, 8.6
"2012/11/30", 9.9,10.2, 9.5
"2012/12/01", 9.1, 9.6, 8.0
"2012/12/02", 8.1, 8.6, 7.3
"2012/12/03", 8.3, 8.7, 7.9
"2012/12/04", 8.7, 9.1, 8.1
"2012/12/05", 8.7, 9.1, 8.0
"2012/12/06", 9.1,10.1, 8.5
"2012/12/07", 8.9, 9.5, 8.5
"2012/12/08", 8.5, 9.1, 7.7
"2012/12/09", 7.7, 8.1, 6.9
"2012/12/10", 7.1, 7.6, 6.6
"2012/12/11", 6.8, 7.3, 6.4
"2012/12/12", 6.5, 7.5, 5.6
"2012/12/13", 6.7, 7.4, 6.1
"2012/12/14", 6.8, 7.2, 6.4
"2012/12/15", 6.9, 7.1, 6.6
"2012/12/16", 7.7, 8.8, 6.8
"2012/12/17", 7.4, 8.0, 7.1
"2012/12/18", 7.5, 8.3, 7.0
"2012/12/19", 6.9, 7.5, 5.9
"2012/12/20", 5.6, 6.4, 4.9
"2012/12/21", 5.7, 6.6, 4.8
"2012/12/22", 5.9, 6.3, 5.6
"2012/12/23", 5.6, 5.9, 5.4
"2012/12/24", 5.4, 6.0, 4.6
"2012/12/25", 5.1, 5.9, 4.2
"2012/12/26", 4.6, 5.2, 3.7
"2012/12/27", 3.7, 4.5, 3.0
"2012/12/28", 3.9, 4.2, 3.5
"2012/12/29", 4.7, 5.5, 4.0
"2012/12/30", 5.8, 6.2, 5.3
"2012/12/31", 5.8, 6.2, 5.2
